Weather Roundup
Issued by NWS Springfield, MO

Home | Current Version | Previous Version | Text Only | Print | Product List | Glossary On
Versions: 1 2 3 4 5 6 7 8 9 10 11 12 13 14 15 16 17 18 19 20 21 22 23 24 25 26 27 28 29 30 31 32 33 34 35 36 37 38 39 40 41 42 43 44 45 46 47 48 49 50
162
NZUS99 KSGF 161507
HRRSGF

HOURLY WEATHER
NATIONAL WEATHER SERVICE SPRINGFIELD MO
1000 AM CDT MON OCT 16 2017

......SGF CWA......

CITY           SKY/WX    TMP DP  RH WIND       PRES   REMARKS
SPRINGFIELD    SUNNY     54  42  64 CALM      30.43R
JOPLIN         SUNNY     55  43  63 S5        30.44S
WEST PLAINS    SUNNY     56  41  57 NE6       30.43R
ROLLA          SUNNY     54  41  61 CALM      30.42S
OSAGE BEACH    SUNNY     50  46  86 S3        30.44R
BRANSON        SUNNY     54  41  62 CALM      30.45R

......SURROUNDING SGF CWA......

CITY           SKY/WX    TMP DP  RH WIND       PRES   REMARKS
CHANUTE        SUNNY     54  43  66 S8        30.44R
PARSONS        SUNNY     54  43  66 VRB3      30.46R
COFFEYVILLE    SUNNY     52  47  83 CALM      30.44S
EMPORIA        SUNNY     54  41  61 SW8       30.42R
GROVE OK       SUNNY     52  45  76 CALM      30.46S
ROGERS AR      SUNNY     55  39  54 E7        30.44S
SILOAM SPRINGS SUNNY     54  42  64 E3        30.44S
HARRISON AR    SUNNY     55  40  56 NE7       30.44R
NEAR YELLVILLE SUNNY     55  45  68 N6        30.44S

......KANSAS AND MISSOURI......

CITY           SKY/WX    TMP DP  RH WIND       PRES   REMARKS
KANSAS CTY INT SUNNY     54  43  66 SW6       30.40R
DOWNTOWN KC    SUNNY     54  43  66 SW5       30.40S
COLUMBIA       SUNNY     57  42  57 W3        30.41R
SEDALIA        SUNNY     55  42  61 SW7       30.43R
ST JOSEPH      SUNNY     49  44  83 CALM      30.39S
ST LOUIS       SUNNY     55  46  71 W6        30.41S
SPIRIT OF STL  MOSUNNY   48  47  96 W5        30.42R
KIRKSVILLE     SUNNY     51  43  74 W6        30.38S
WICHITA        SUNNY     55  43  63 S8        30.42R
TOPEKA         SUNNY     51  45  79 CALM      30.40S
OLATHE         SUNNY     54  39  57 SW7       30.41R

......TENNESSEE......

CITY           SKY/WX    TMP DP  RH WIND       PRES   REMARKS
MEMPHIS        MOSUNNY   58  43  57 NE13      30.37R
NASHVILLE      MOSUNNY   58  45  62 NE15      30.34R

......ARKANSAS.......

CITY           SKY/WX    TMP DP  RH WIND       PRES   REMARKS
FAYETTEVILLE   SUNNY     51  46  83 CALM      30.43S
FT SMITH       SUNNY     57  45  64 NE5       30.44R
LITTLE ROCK    SUNNY     57  44  62 NE10      30.42R

......OKLAHOMA.......

CITY           SKY/WX    TMP DP  RH WIND       PRES   REMARKS
TULSA          SUNNY     54  45  71 CALM      30.45S
PONCA CITY     SUNNY     53  43  68 CALM      30.44S
MCALESTER      MOSUNNY   58  47  66 VRB3      30.45R
OKLAHOMA CITY  SUNNY     57  38  48 E5        30.45R

......IOWA............

CITY           SKY/WX    TMP DP  RH WIND       PRES   REMARKS
DES MOINES     SUNNY     51  41  68 SW5       30.34R
QUAD CITIES    SUNNY     51  41  68 W6        30.34R

......ILLINOIS........

CITY           SKY/WX    TMP DP  RH WIND       PRES   REMARKS
QUINCY         SUNNY     52  40  63 W8        30.37S
CHICAGO        SUNNY     52  40  63 W6        30.31S




USA.gov is the U.S. government's official web portal to all federal, state and local government web resources and services.